FW6276 Weather Reports


time (UTC)temp
C
wind
direction
speed
KPH
gust
KPH
rain 1hr
cm
rain 24hr
cm
rain mn
cm
humidity
%
barometer
mb
20260906113510 21 37 1.6 3.2 0.00 1.19 0.03 97 1012.8
20260906113027 21 221 0.0 3.2 0.00 1.19 0.03 97 1012.8
20260906112511 21 23 0.0 1.6 0.00 1.19 0.03 97 1012.7
20260906112014 21 23 0.0 1.6 0.00 1.19 0.03 97 1012.7
20260906111528 21 20 0.0 1.6 0.00 1.19 0.03 97 1012.7
20260906111019 21 20 0.0 1.6 0.00 1.19 0.03 97 1012.7
20260906110515 21 20 0.0 1.6 0.00 1.19 0.03 97 1012.7
20260906110015 21 20 0.0 8.0 0.00 1.19 0.03 97 1012.5
20260906105506 21 32 0.0 8.0 0.00 1.19 0.03 97 1012.5
20260906105012 21 23 1.6 4.8 0.00 1.19 0.03 97 1012.5
20260906104518 21 30 1.6 4.8 0.00 1.19 0.03 97 1012.5
20260906104014 21 31 0.0 1.6 0.00 1.19 0.03 97 1012.5
20260906103508 21 31 0.0 4.8 0.00 1.19 0.03 97 1012.4
20260906103020 21 31 0.0 6.4 0.00 1.19 0.03 97 1012.4
20260906102510 21 18 0.0 6.4 0.00 1.19 0.03 97 1012.4
20260906102016 20 116 0.0 1.6 0.00 1.19 0.03 97 1012.4
20260906101529 20 128 0.0 0.0 0.00 1.19 0.03 97 1012.4
20260906101014 20 193 0.0 0.0 0.03 1.19 0.03 97 1012.3
20260906100514 20 193 0.0 0.0 0.03 1.19 0.03 97 1012.4
20260906100029 20 193 0.0 0.0 0.03 1.19 0.03 97 1012.3
20260906095513 20 193 0.0 0.0 0.03 1.19 0.03 96 1012.3
20260906095021 20 193 0.0 0.0 0.03 1.19 0.03 96 1012.2
20260906094524 20 193 0.0 0.0 0.03 1.19 0.03 96 1012.2
20260906094007 20 193 0.0 0.0 0.03 1.19 0.03 96 1012.2
20260906093510 20 193 0.0 0.0 0.03 1.19 0.03 96 1012.2
20260906093019 20 193 0.0 0.0 0.03 1.19 0.03 96 1012.1
20260906092503 20 193 0.0 1.6 0.03 1.19 0.03 96 1012.1
20260906092003 20 193 0.0 1.6 0.03 1.19 0.03 96 1011.9
20260906091503 20 193 0.0 1.6 0.03 1.19 0.03 96 1011.8
20260906091003 20 193 0.0 1.6 0.00 1.17 0.00 96 1011.7
20260906090506 20 193 0.0 0.0 0.00 1.17 0.00 97 1011.7
20260906090007 20 193 0.0 1.6 0.00 1.17 0.00 97 1011.5
20260906085504 20 193 0.0 1.6 0.00 1.17 0.00 96 1011.5
20260906085003 21 181 0.0 1.6 0.00 1.17 0.00 96 1011.4
20260906084510 21 181 0.0 1.6 0.00 1.17 0.00 97 1011.4
20260906084009 21 107 0.0 1.6 0.00 1.17 0.00 97 1011.4
20260906083504 21 196 0.0 0.0 0.00 1.17 0.00 97 1011.3
20260906083036 21 196 0.0 0.0 0.00 1.17 0.00 97 1011.3
20260906082506 21 196 0.0 0.0 0.00 1.17 0.00 97 1011.4
20260906082012 20 196 0.0 0.0 0.00 1.17 0.00 96 1011.4
20260906081539 20 196 0.0 0.0 0.00 1.17 0.00 96 1011.4
20260906081003 20 196 0.0 0.0 0.00 1.17 0.00 97 1011.4
20260906080502 20 196 0.0 0.0 0.00 1.17 0.00 96 1011.3
20260906080005 20 196 0.0 0.0 0.00 1.17 0.00 96 1011.4
20260906075503 20 196 0.0 0.0 0.00 1.17 0.00 96 1011.3
20260906075004 20 196 0.0 0.0 0.00 1.17 0.00 96 1011.4
20260906074504 20 196 0.0 0.0 0.00 1.17 0.00 96 1011.4
20260906074003 21 196 0.0 1.6 0.00 1.17 0.00 96 1011.4
20260906073506 21 196 0.0 1.6 0.00 1.17 0.00 96 1011.5
20260906073010 21 185 0.0 1.6 0.00 1.17 0.00 96 1011.7
20260906072504 21 72 0.0 1.6 0.00 1.17 0.00 96 1011.7
20260906072009 21 72 0.0 0.0 0.00 1.17 0.00 96 1011.6
20260906071515 21 72 0.0 1.6 0.00 1.17 0.00 96 1011.7
20260906071010 21 72 0.0 1.6 0.00 1.17 0.00 96 1011.6
20260906070524 21 72 0.0 1.6 0.00 1.17 0.00 96 1011.6
20260906070024 21 68 0.0 1.6 0.00 1.17 0.00 96 1011.6
20260906065503 21 68 0.0 1.6 0.00 1.17 0.00 96 1011.5
20260906065003 21 68 0.0 1.6 0.00 1.17 0.00 97 1011.4
20260906064506 21 68 0.0 1.6 0.00 1.17 0.00 96 1011.5
20260906064003 21 68 0.0 1.6 0.00 1.17 0.00 96 1011.6
20260906063503 21 69 0.0 1.6 0.00 1.17 0.00 96 1011.5
20260906063008 21 69 0.0 1.6 0.00 1.17 0.00 96 1011.5
20260906062508 21 69 0.0 1.6 0.00 1.17 0.00 96 1011.4
20260906062006 21 68 0.0 0.0 0.00 1.17 0.00 96 1011.4
20260906061516 21 68 0.0 1.6 0.00 1.17 0.00 96 1011.4
20260906061005 21 68 0.0 1.6 0.00 1.17 0.00 96 1011.4
20260906060506 21 68 0.0 1.6 0.00 1.17 0.00 96 1011.5
20260906060019 21 68 0.0 1.6 0.00 1.17 0.00 96 1011.6
20260906055509 21 68 0.0 1.6 0.00 1.17 0.00 96 1011.6
20260906055009 21 68 0.0 1.6 0.00 1.17 0.00 96 1011.8
20260906054523 21 68 0.0 1.6 0.00 1.17 0.00 96 1011.8
20260906054004 21 68 0.0 1.6 0.00 1.17 0.00 96 1011.8
20260906053501 21 68 0.0 1.6 0.00 1.17 0.00 96 1012.1
20260906053005 21 68 0.0 1.6 0.00 1.17 0.00 96 1012.1
20260906052507 21 68 0.0 1.6 0.00 1.17 0.00 96 1012.1
20260906052005 21 104 0.0 1.6 0.00 1.17 0.00 96 1012.1
20260906051510 21 104 0.0 1.6 0.00 1.17 0.00 96 1012.1
20260906051007 21 104 0.0 1.6 0.00 1.17 0.00 96 1012.3
20260906050508 21 104 0.0 1.6 0.00 1.17 0.00 97 1012.4
20260906050019 21 104 0.0 1.6 0.00 1.17 0.00 96 1012.5
20260906045510 21 104 0.0 1.6 0.00 1.17 0.00 96 1012.5
20260906045007 21 104 0.0 1.6 0.00 1.17 0.00 96 1012.6
20260906044528 21 104 0.0 1.6 0.00 1.17 0.00 96 1012.7
20260906044010 21 104 0.0 1.6 0.00 1.17 0.00 96 1012.7
20260906043513 21 104 0.0 1.6 0.00 1.17 0.00 96 1012.7
20260906043026 21 104 0.0 1.6 0.00 1.17 0.00 96 1012.7
20260906042503 21 104 0.0 1.6 0.00 1.17 0.00 96 1012.6
20260906042004 21 104 0.0 1.6 0.00 1.17 0.00 96 1012.8
20260906041507 21 104 0.0 1.6 0.00 1.17 0.00 96 1012.8
20260906041004 21 104 0.0 0.0 0.00 1.17 0.00 96 1012.8
20260906040506 21 104 0.0 1.6 0.00 1.17 0.00 96 1012.9
20260906040012 21 104 0.0 1.6 0.00 1.17 0.00 96 1012.8
20260906035508 21 104 0.0 1.6 0.00 1.17 1.17 96 1013.0
20260906035009 21 104 0.0 1.6 0.00 1.17 1.17 96 1013.0
20260906034517 21 104 0.0 0.0 0.00 1.17 1.17 96 1012.9
20260906034011 21 104 0.0 0.0 0.00 1.17 1.17 96 1013.0
20260906033508 21 104 0.0 0.0 0.00 1.17 1.17 96 1013.2
20260906033025 21 104 0.0 0.0 0.00 1.17 1.17 96 1013.1
20260906032510 21 104 0.0 0.0 0.00 1.17 1.17 96 1013.1
20260906032014 21 104 0.0 0.0 0.00 1.17 1.17 95 1013.1
20260906031543 21 104 0.0 1.6 0.00 1.17 1.17 95 1013.1
20260906031004 21 104 0.0 1.6 0.00 1.17 1.17 95 1013.2
20260906030503 21 104 0.0 1.6 0.00 1.17 1.17 95 1013.2
20260906030009 21 104 0.0 1.6 0.00 1.17 1.17 95 1013.1
20260906025506 21 104 0.0 1.6 0.00 1.17 1.17 95 1013.0
20260906025006 22 104 0.0 3.2 0.00 1.17 1.17 95 1013.0
20260906024514 22 104 0.0 6.4 0.00 1.17 1.17 96 1013.0
20260906024006 22 83 3.2 6.4 0.00 1.17 1.17 97 1012.9
20260906023507 21 45 1.6 3.2 0.00 1.17 1.17 96 1012.8
20260906023019 21 293 0.0 1.6 0.00 1.17 1.17 95 1012.8
20260906022508 21 293 0.0 1.6 0.00 1.17 1.17 95 1012.8
20260906022012 21 293 0.0 1.6 0.00 1.17 1.17 95 1012.7
20260906021526 21 293 0.0 1.6 0.00 1.17 1.17 95 1012.7
20260906021017 21 293 0.0 1.6 0.00 1.17 1.17 95 1012.7
20260906020512 21 293 0.0 1.6 0.00 1.17 1.17 95 1012.6
20260906020033 21 293 0.0 1.6 0.00 1.17 1.17 95 1012.6
20260906015506 21 293 0.0 1.6 0.00 1.17 1.17 95 1012.5
20260906015006 21 293 0.0 0.0 0.00 1.17 1.17 95 1012.4
20260906014511 22 293 0.0 1.6 0.00 1.17 1.17 95 1012.4
20260906014007 22 293 0.0 1.6 0.00 1.17 1.17 95 1012.4
20260906013507 22 47 0.0 4.8 0.00 1.17 1.17 95 1012.3
20260906013016 22 47 0.0 4.8 0.00 1.17 1.17 95 1012.6
20260906012507 22 81 0.0 3.2 0.00 1.17 1.17 95 1012.8
20260906012008 22 61 0.0 1.6 0.00 1.17 1.17 95 1012.7
20260906011521 22 226 0.0 1.6 0.00 1.17 1.17 95 1012.5
20260906011015 22 184 0.0 1.6 0.00 1.17 1.17 95 1012.4
20260906010513 22 140 1.6 1.6 0.00 1.17 1.17 95 1012.4
20260906010026 22 167 0.0 1.6 0.00 1.17 1.17 95 1012.3
20260906005514 22 210 0.0 0.0 0.00 1.17 1.17 95 1012.3
20260906005012 22 210 0.0 1.6 0.00 1.17 1.17 94 1012.2
20260906004528 22 210 0.0 1.6 0.00 1.17 1.17 94 1012.1
20260906004004 22 209 0.0 3.2 0.00 1.17 1.17 94 1012.1
20260906003506 22 231 0.0 3.2 0.00 1.17 1.17 94 1012.1
20260906003020 22 233 0.0 3.2 0.00 1.17 1.17 94 1012.3
20260906002508 22 165 1.6 4.8 0.00 1.17 1.17 94 1012.3
20260906002009 22 157 1.6 4.8 0.00 1.17 1.17 94 1012.1
20260906001519 22 166 3.2 4.8 0.00 1.17 1.17 94 1012.0
20260906001009 22 252 0.0 4.8 0.00 1.17 1.17 93 1011.9
20260906000508 22 231 1.6 4.8 0.00 1.17 1.17 93 1011.9
20260906000025 22 195 0.0 4.8 0.00 1.17 1.17 93 1011.9
20260905235510 22 250 1.6 4.8 0.00 1.17 1.17 93 1011.7
20260905235018 23 241 1.6 1.6 0.00 1.17 1.17 93 1011.6
20260905234527 23 206 0.0 1.6 0.00 1.17 1.17 93 1011.6
20260905234026 23 206 0.0 1.6 0.00 1.17 1.17 93 1011.5
20260905233516 23 131 0.0 0.0 0.00 1.17 1.17 93 1011.3
20260905233033 23 153 0.0 0.0 0.00 1.17 1.17 93 1011.3
20260905232505 23 153 0.0 0.0 0.00 1.17 1.17 93 1011.1
20260905232004 23 153 0.0 0.0 0.00 1.17 1.17 93 1011.0
20260905231515 23 153 0.0 0.0 0.00 1.17 1.17 92 1010.9
20260905231005 23 153 0.0 0.0 0.00 1.17 1.17 92 1010.8
20260905230519 23 153 0.0 1.6 0.00 1.17 1.17 92 1010.5
20260905230021 23 153 0.0 1.6 0.00 1.17 1.17 93 1010.6
20260905225508 23 126 0.0 1.6 0.00 1.17 1.17 93 1010.6
20260905225010 23 154 0.0 0.0 0.00 1.17 1.17 93 1010.7
20260905224527 23 154 0.0 0.0 0.00 1.17 1.17 93 1010.7
20260905224014 23 154 0.0 0.0 0.00 1.17 1.17 93 1010.4
20260905223513 23 154 0.0 0.0 0.00 1.17 1.17 92 1010.3
20260905223036 23 154 0.0 3.2 0.00 1.17 1.17 93 1010.3
20260905222517 23 154 0.0 3.2 0.00 1.17 1.17 93 1010.2
20260905222022 23 199 1.6 1.6 0.00 1.17 1.17 92 1010.2
20260905221532 23 226 0.0 1.6 0.00 1.17 1.17 93 1010.2
20260905221008 23 182 0.0 1.6 0.00 1.17 1.17 94 1010.2
20260905220507 22 198 0.0 1.6 0.00 1.17 1.17 94 1010.3
20260905220018 22 198 0.0 1.6 0.03 1.17 1.17 93 1010.1
20260905215511 22 198 0.0 0.0 0.03 1.17 1.17 93 1010.3
20260905215010 22 198 0.0 1.6 0.03 1.17 1.17 94 1010.5
20260905214505 22 198 0.0 1.6 0.03 1.17 1.17 93 1010.9
20260905214004 22 199 0.0 0.0 0.03 1.17 1.17 93 1011.1
20260905213504 22 198 0.0 0.0 0.03 1.17 1.17 93 1011.4
20260905213005 22 199 0.0 0.0 0.03 1.17 1.17 93 1011.6
20260905212503 22 198 0.0 0.0 0.03 1.17 1.17 93 1011.9
20260905212002 22 199 0.0 0.0 0.10 1.17 1.17 93 1012.0
20260905211517 22 198 0.0 0.0 0.43 1.17 1.17 93 1012.0
20260905211003 22 198 0.0 0.0 1.12 1.17 1.17 93 1012.0
20260905210518 22 199 0.0 1.6 1.17 1.17 1.17 92 1011.7
20260905210007 22 199 0.0 8.0 1.14 1.14 1.14 91 1011.6
20260905205504 22 232 3.2 8.0 1.14 1.14 1.14 90 1012.1
20260905205004 22 160 3.2 6.4 1.14 1.14 1.14 89 1012.4
20260905204506 22 65 4.8 6.4 1.14 1.14 1.14 88 1012.0
20260905204004 22 215 0.0 6.4 1.14 1.14 1.14 88 1012.5
20260905203514 22 200 0.0 11.3 1.14 1.14 1.14 87 1012.5
20260905203008 23 84 6.4 11.3 1.14 1.14 1.14 85 1012.5
20260905202504 23 37 6.4 14.5 1.14 1.14 1.14 85 1012.5
20260905202004 23 13 6.4 14.5 1.07 1.07 1.07 81 1013.0
20260905201507 25 349 4.8 14.5 0.74 0.74 0.74 75 1013.8
20260905201003 27 328 3.2 9.7 0.05 0.05 0.05 70 1012.7
20260905200518 30 175 3.2 14.5 0.00 0.00 0.00 64 1012.8
20260905200008 33 176 6.4 14.5 0.00 0.00 0.00 53 1012.2
20260905195506 35 243 0.0 3.2 0.00 0.00 0.00 51 1010.9
20260905195004 35 203 0.0 8.0 0.00 0.00 0.00 50 1010.3
20260905194505 35 201 0.0 8.0 0.00 0.00 0.00 49 1010.0
20260905194004 36 214 3.2 8.0 0.00 0.00 0.00 48 1009.9
20260905193505 36 250 3.2 8.0 0.00 0.00 0.00 47 1010.3
20260905193007 36 193 4.8 8.0 0.00 0.00 0.00 45 1010.2
20260905192504 37 74 1.6 9.7 0.00 0.00 0.00 45 1010.2
20260905192005 37 102 3.2 12.9 0.00 0.00 0.00 46 1010.3
20260905191509 37 165 6.4 12.9 0.00 0.00 0.00 44 1010.3
20260905191004 37 172 4.8 12.9 0.00 0.00 0.00 45 1010.2
20260905190502 37 184 3.2 8.0 0.00 0.00 0.00 49 1010.1
20260905190006 37 18 3.2 6.4 0.00 0.00 0.00 48 1010.2
20260905185503 37 240 3.2 8.0 0.00 0.00 0.00 48 1010.3
20260905185003 37 25 1.6 11.3 0.00 0.00 0.00 47 1010.3
20260905184511 37 56 3.2 11.3 0.00 0.00 0.00 44 1010.5
20260905184003 37 19 4.8 11.3 0.00 0.00 0.00 46 1010.7
20260905183515 37 27 3.2 6.4 0.00 0.00 0.00 44 1010.7
20260905183011 37 196 3.2 9.7 0.00 0.00 0.00 45 1010.7
20260905182504 37 136 3.2 9.7 0.00 0.00 0.00 46 1010.8
20260905182004 36 238 3.2 9.7 0.00 0.00 0.00 46 1010.9
20260905181510 36 212 4.8 8.0 0.00 0.00 0.00 48 1011.0
20260905181003 36 157 4.8 8.0 0.00 0.00 0.00 49 1011.1
20260905180522 36 195 1.6 8.0 0.00 0.00 0.00 49 1011.2
20260905180008 36 148 3.2 4.8 0.00 0.00 0.00 49 1011.4
20260905175503 36 184 3.2 4.8 0.00 0.00 0.00 49 1011.6
20260905175004 36 118 3.2 3.2 0.00 0.00 0.00 46 1011.7
20260905174511 36 201 1.6 4.8 0.00 0.00 0.00 53 1011.8
20260905174004 35 69 1.6 4.8 0.00 0.00 0.00 50 1012.0
20260905173514 35 352 3.2 4.8 0.00 0.00 0.00 50 1012.1
20260905173011 35 32 3.2 6.4 0.00 0.00 0.00 48 1012.2
20260905172504 35 37 3.2 6.4 0.00 0.00 0.00 53 1012.3
20260905172004 35 46 1.6 4.8 0.00 0.00 0.00 54 1012.3
20260905171526 35 121 1.6 6.4 0.00 0.00 0.00 52 1012.5
20260905171010 35 42 3.2 6.4 0.00 0.00 0.00 52 1012.5
20260905170519 36 41 1.6 6.4 0.00 0.00 0.00 51 1012.6
20260905170013 36 99 1.6 6.4 0.00 0.00 0.00 53 1012.7
20260905165503 35 26 3.2 9.7 0.00 0.00 0.00 54 1012.7
20260905165007 35 23 3.2 9.7 0.00 0.00 0.00 54 1012.8
20260905164513 35 52 1.6 9.7 0.00 0.00 0.00 52 1012.9
20260905164005 35 25 4.8 9.7 0.00 0.00 0.00 56 1012.8
20260905163516 35 40 4.8 8.0 0.00 0.00 0.00 57 1013.0
20260905163012 35 70 1.6 9.7 0.00 0.00 0.00 52 1013.0
20260905162503 35 123 1.6 9.7 0.00 0.00 0.00 54 1013.1
20260905162007 35 22 4.8 9.7 0.00 0.00 0.00 53 1013.1
20260905161517 35 21 4.8 8.0 0.00 0.00 0.00 55 1013.2
20260905161007 35 11 4.8 8.0 0.00 0.00 0.00 56 1013.2
20260905160507 35 115 1.6 4.8 0.00 0.00 0.00 55 1013.2
20260905160025 35 143 1.6 4.8 0.00 0.00 0.00 56 1013.3
20260905155506 35 54 1.6 6.4 0.00 0.00 0.00 55 1013.4
20260905155006 35 240 1.6 6.4 0.00 0.00 0.00 58 1013.6
20260905154504 35 143 1.6 6.4 0.00 0.00 0.00 59 1013.6
20260905154004 33 103 1.6 6.4 0.00 0.00 0.00 61 1013.6
20260905153505 34 58 1.6 6.4 0.00 0.00 0.00 59 1013.6
20260905153011 34 27 4.8 6.4 0.00 0.00 0.00 60 1013.6
20260905152504 34 124 1.6 4.8 0.00 0.00 0.00 59 1013.5
20260905152004 34 82 1.6 6.4 0.00 0.00 0.00 61 1013.6
20260905151505 34 204 3.2 6.4 0.00 0.00 0.00 61 1013.6
20260905151004 34 197 3.2 6.4 0.00 0.00 0.00 61 1013.6
20260905150504 34 159 3.2 6.4 0.00 0.00 0.00 61 1013.6
20260905150006 34 134 3.2 6.4 0.00 0.00 0.00 61 1013.7
20260905145503 34 124 3.2 6.4 0.00 0.00 0.00 62 1013.7
20260905145004 34 242 3.2 4.8 0.00 0.00 0.00 60 1013.7
20260905144507 33 133 1.6 4.8 0.00 0.00 0.00 62 1013.6
20260905144004 33 76 1.6 8.0 0.00 0.00 0.00 63 1013.7
20260905143504 33 50 1.6 8.0 0.00 0.00 0.00 62 1013.7
20260905143009 33 107 1.6 4.8 0.00 0.00 0.00 62 1013.7
20260905142504 33 191 1.6 6.4 0.00 0.00 0.00 63 1013.8
20260905142005 33 243 1.6 6.4 0.00 0.00 0.00 64 1013.7
20260905141507 32 212 1.6 6.4 0.00 0.00 0.00 66 1013.7
20260905141006 32 205 3.2 6.4 0.00 0.00 0.00 65 1013.7
20260905140503 32 188 3.2 4.8 0.00 0.00 0.00 66 1013.7
20260905140010 32 150 1.6 6.4 0.00 0.00 0.00 67 1013.8
20260905135504 31 165 1.6 6.4 0.00 0.00 0.00 68 1013.9
20260905135004 31 134 3.2 6.4 0.00 0.00 0.00 69 1013.9
20260905134508 31 248 3.2 6.4 0.00 0.00 0.00 70 1013.9
20260905134008 31 153 3.2 6.4 0.00 0.00 0.00 70 1013.9
20260905133506 31 252 3.2 4.8 0.00 0.00 0.00 69 1014.0
20260905133009 31 105 1.6 8.0 0.00 0.00 0.00 72 1014.1
20260905132504 30 132 1.6 8.0 0.00 0.00 0.00 71 1014.1
20260905132008 30 146 3.2 6.4 0.00 0.00 0.00 73 1014.0
20260905131510 30 163 3.2 8.0 0.00 0.00 0.00 74 1014.1
20260905131003 30 160 3.2 8.0 0.00 0.00 0.00 73 1014.1
20260905130503 30 153 3.2 8.0 0.00 0.00 0.00 73 1014.1
20260905130015 30 172 1.6 9.7 0.00 0.00 0.00 74 1014.1
20260905125505 30 173 3.2 9.7 0.00 0.00 0.00 75 1014.1
20260905125004 30 158 3.2 6.4 0.00 0.00 0.00 75 1014.2
20260905124512 30 228 1.6 4.8 0.00 0.00 0.00 76 1014.2
20260905124004 29 177 1.6 6.4 0.00 0.00 0.00 76 1014.2
20260905123506 29 183 1.6 6.4 0.00 0.00 0.00 76 1014.2
20260905123008 28 127 1.6 6.4 0.00 0.00 0.00 77 1014.1
20260905122511 28 151 3.2 8.0 0.00 0.00 0.00 78 1014.1
20260905122005 28 172 3.2 9.7 0.00 0.00 0.00 78 1014.1
20260905121510 28 130 3.2 9.7 0.00 0.00 0.00 79 1014.1
20260905121004 28 159 3.2 8.0 0.00 0.00 0.00 79 1014.1
20260905120505 28 159 1.6 4.8 0.00 0.00 0.00 80 1014.1
20260905120010 27 202 1.6 4.8 0.00 0.00 0.00 81 1014.0
20260905115506 27 240 1.6 6.4 0.00 0.00 0.00 82 1013.9
20260905115003 27 197 1.6 6.4 0.00 0.00 0.00 83 1013.9
20260905114513 27 164 0.0 3.2 0.00 0.00 0.00 84 1013.8
20260905114005 26 132 1.6 3.2 0.00 0.00 0.00 85 1013.8